User: anonymous   Login
Location: Iola
(37.9240°N, 95.4000°W)
Time: 04:17:42
(UTC-05:00)
Language:

Meteor 2-10 Rocket - Orbit

View from above orbital plane
View from above orbital plane
View from above satellite
View from above satellite

Ground track
Ground track

The orbit data is extracted from the following two-line orbital elements,

1 14453U 83109B   16211.74340622  .00000043  00000-0  12815-4 0  9995
2 14453  81.1656  70.6793 0103947 276.6297  82.3058 14.24652075701618
Epoch (UTC): 29 July 2016 17:50:30
Eccentricity: 0.0103947
inclination: 81.1656°
perigee height: 735 km
apogee height: 884 km
right ascension of ascending node: 70.6793°
argument of perigee: 276.6297°
revolutions per day: 14.24652075
mean anomaly at epoch: 82.3058°
orbit number at epoch: 70161

The dashed part of the orbit path shows where the satellite is in the earth's shadow,  

DLR